QPF
0.00 0.00 0.00 0.00 0.00 0.00 0.00 0.00 0.00 0.00 0.00 0.00 0.00 0.00 0.00 0.00 0.00 0.00 0.00 0.00 0.00 0.00 0.00 0.00 0.00 0.00 0.00 0.00 0.00 0.00 0.00 0.00 0.00 0.00 0.00 0.00 0.00 0.00 0.00 0.00 0.00 0.01 0.01 0.00 0.00
0.00 0.00 0.00 0.00 0.00 0.00 0.00 0.00 0.00 0.00 0.00 0.00 0.00 0.00 0.00 0.00 0.00 0.00 0.00 0.00 0.00 0.00 0.00 0.00 0.00 0.00 0.00 0.00 0.00 0.00 0.00 0.00 0.00 0.00 0.00 0.00 0.00 0.00 0.02 0.00 0.00 0.00 0.00 0.00 0.00
0.00 0.00 0.00 0.00 0.00 0.00 0.00 0.00 0.00 0.00 0.00 0.00 0.00 0.00 0.00 0.00 0.00 0.00 0.00 0.00 0.00 0.00 0.00 0.00 0.00 0.00 0.00 0.00 0.00 0.00 0.00 0.00 0.00 0.00 0.00 0.00 0.00 0.00 0.01 0.01 0.00 0.00 0.00 0.00 0.00
0.00 0.00 0.00 0.00 0.00 0.00 0.00 0.00 0.00 0.00 0.00 0.00 0.00 0.00 0.00 0.00 0.00 0.00 0.00 0.00 0.00 0.00 0.00 0.00 0.00 0.00 0.00 0.00 0.00 0.00 0.00 0.00 0.00 0.00 0.00 0.00 0.00 0.00 0.00 0.00 0.00 0.00 0.00 0.00 0.00
0.00 0.00 0.00 0.00 0.00 0.00 0.00 0.00 0.00 0.00 0.00 0.00 0.00 0.00 0.00 0.00 0.00 0.00 0.00 0.00 0.00 0.00 0.00 0.00 0.00 0.00 0.00 0.00 0.00 0.00 0.00 0.00 0.00 0.00 0.00 0.00 0.00 0.00 0.00 0.00 0.00 0.00 0.00 0.00 0.00
0.00 0.00 0.00 0.00 0.00 0.00 0.00 0.00 0.00 0.00 0.00 0.00 0.00 0.00 0.00 0.00 0.00 0.00 0.00 0.00 0.00 0.00 0.00 0.00 0.00 0.00 0.00 0.00 0.00 0.00 0.00 0.00 0.00 0.00 0.00 0.00 0.00 0.01 0.00 0.00 0.00 0.00 0.00 0.00 0.00
0.00 0.00 0.00 0.00 0.00 0.00 0.00 0.00 0.00 0.00 0.00 0.00 0.00 0.00 0.00 0.00 0.00 0.00 0.00 0.00 0.00 0.00 0.00 0.00 0.00 0.00 0.00 0.00 0.00 0.00 0.00 0.00 0.00 0.00 0.00 0.00 0.01 0.00 0.00 0.00 0.00 0.00 0.00 0.00 0.00
0.00 0.00 0.00 0.00 0.00 0.00 0.00 0.00 0.00 0.00 0.00 0.00 0.00 0.00 0.00 0.00 0.00 0.00 0.00 0.00 0.00 0.00 0.00 0.00 0.00 0.00 0.00 0.00 0.00 0.00 0.00 0.00 0.00 0.00 0.00 0.00 0.00 0.00 0.00 0.00 0.00 0.00 0.00 0.00 0.00
0.00 0.00 0.00 0.00 0.00 0.00 0.00 0.00 0.00 0.00 0.00 0.00 0.00 0.00 0.00 0.00 0.00 0.00 0.00 0.00 0.00 0.00 0.00 0.00 0.00 0.00 0.00 0.00 0.00 0.00 0.00 0.00 0.00 0.00 0.00 0.00 0.00 0.00 0.00 0.00 0.00 0.00 0.00 0.00 0.00
0.00 0.00 0.00 0.00 0.00 0.00 0.00 0.00 0.00 0.00 0.00 0.00 0.00 0.00 0.00 0.00 0.00 0.00 0.00 0.00 0.00 0.00 0.00 0.00 0.00 0.00 0.00 0.00 0.00 0.00 0.00 0.00 0.00 0.00 0.00 0.00 0.00 0.00 0.00 0.00 0.00 0.00 0.00 0.00 0.00
0.00 0.00 0.00 0.00 0.00 0.00 0.00 0.00 0.00 0.00 0.00 0.00 0.00 0.00 0.00 0.00 0.00 0.00 0.00 0.00 0.00 0.00 0.00 0.00 0.00 0.00 0.00 0.00 0.00 0.00 0.00 0.00 0.00 0.00 0.00 0.00 0.00 0.00 0.00 0.00 0.00 0.00 0.00 0.00 0.00
0.00 0.00 0.00 0.00 0.00 0.00 0.00 0.00 0.00 0.00 0.00 0.00 0.00 0.00 0.00 0.00 0.00 0.00 0.00 0.00 0.00 0.00 0.00 0.00 0.00 0.00 0.00 0.00 0.00 0.00 0.00 0.00 0.00 0.00 0.00 0.00 0.00 0.00 0.00 0.00 0.00 0.00 0.00 0.00 0.00
0.00 0.00 0.00 0.00 0.00 0.00 0.00 0.00 0.00 0.00 0.00 0.00 0.00 0.00 0.00 0.00 0.00 0.00 0.00 0.00 0.00 0.00 0.00 0.00 0.00 0.00 0.00 0.00 0.00 0.00 0.00 0.00 0.00 0.00 0.00 0.00 0.00 0.00 0.00 0.00 0.00 0.00 0.01 0.00 0.00
0.00 0.00 0.00 0.00 0.00 0.00 0.00 0.00 0.00 0.00 0.00 0.00 0.00 0.00 0.00 0.00 0.00 0.00 0.00 0.00 0.00 0.00 0.00 0.00 0.00 0.00 0.00 0.00 0.00 0.00 0.00 0.00 0.00 0.00 0.00 0.00 0.00 0.00 0.00 0.00 0.00 0.00 0.01 0.01 0.00
0.00 0.00 0.00 0.00 0.00 0.00 0.00 0.00 0.00 0.00 0.00 0.00 0.00 0.00 0.00 0.00 0.00 0.00 0.00 0.00 0.00 0.00 0.00 0.00 0.00 0.00 0.00 0.00 0.00 0.00 0.00 0.00 0.00 0.00 0.00 0.00 0.00 0.00 0.00 0.00 0.00 0.00 0.00 0.01 0.00
0.00 0.00 0.00 0.00 0.00 0.00 0.00 0.00 0.00 0.00 0.00 0.00 0.00 0.00 0.00 0.00 0.00 0.00 0.00 0.00 0.00 0.00 0.00 0.00 0.00 0.00 0.00 0.00 0.00 0.00 0.00 0.00 0.00 0.00 0.00 0.00 0.00 0.00 0.00 0.00 0.00 0.00 0.00 0.00 0.00
0.00 0.00 0.00 0.00 0.00 0.00 0.00 0.00 0.00 0.00 0.00 0.00 0.00 0.00 0.00 0.00 0.00 0.00 0.00 0.00 0.00 0.00 0.00 0.00 0.00 0.00 0.00 0.00 0.00 0.00 0.00 0.00 0.00 0.00 0.00 0.00 0.00 0.00 0.01 0.02 0.00 0.00 0.00 0.00 0.00
0.00 0.00 0.00 0.00 0.00 0.00 0.00 0.00 0.00 0.00 0.00 0.00 0.00 0.00 0.00 0.00 0.00 0.00 0.00 0.00 0.00 0.00 0.00 0.00 0.00 0.00 0.00 0.00 0.00 0.00 0.00 0.00 0.00 0.00 0.00 0.00 0.00 0.00 0.01 0.00 0.01 0.00 0.00 0.00 0.00
0.00 0.00 0.00 0.00 0.00 0.00 0.00 0.00 0.00 0.00 0.00 0.00 0.00 0.00 0.00 0.00 0.00 0.00 0.00 0.00 0.00 0.00 0.00 0.00 0.00 0.00 0.00 0.00 0.00 0.00 0.00 0.00 0.00 0.00 0.00 0.00 0.01 0.03 0.01 0.02 0.01 0.00 0.00 0.00 0.00
0.00 0.00 0.00 0.00 0.00 0.00 0.00 0.00 0.00 0.00 0.00 0.00 0.00 0.00 0.00 0.00 0.00 0.00 0.00 0.00 0.00 0.00 0.00 0.00 0.00 0.00 0.00 0.00 0.00 0.00 0.00 0.00 0.00 0.00 0.00 0.00 0.01 0.05 0.06 0.08 0.06 0.00 0.00 0.00 0.00
0.00 0.00 0.00 0.00 0.00 0.00 0.00 0.00 0.00 0.00 0.00 0.00 0.00 0.00 0.00 0.00 0.00 0.00 0.00 0.00 0.00 0.00 0.00 0.00 0.00 0.00 0.00 0.00 0.00 0.00 0.00 0.00 0.00 0.00 0.00 0.00 0.00 0.01 0.03 0.08 0.13 0.03 0.00 0.00 0.00
0.00 0.00 0.00 0.00 0.00 0.00 0.00 0.00 0.00 0.00 0.00 0.00 0.00 0.00 0.00 0.00 0.00 0.00 0.00 0.00 0.00 0.00 0.00 0.00 0.00 0.00 0.00 0.00 0.00 0.00 0.00 0.00 0.00 0.00 0.00 0.00 0.00 0.01 0.01 0.02 0.09 0.03 0.00 0.00 0.00
0.00 0.00 0.00 0.00 0.00 0.00 0.00 0.00 0.00 0.00 0.00 0.00 0.00 0.00 0.00 0.00 0.00 0.00 0.00 0.00 0.00 0.00 0.00 0.00 0.00 0.00 0.01 0.00 0.00 0.00 0.00 0.00 0.00 0.00 0.00 0.00 0.00 0.03 0.03 0.03 0.12 0.01 0.00 0.00 0.00
0.00 0.00 0.00 0.00 0.00 0.00 0.00 0.00 0.00 0.00 0.00 0.00 0.00 0.00 0.00 0.00 0.00 0.00 0.00 0.00 0.00 0.00 0.00 0.00 0.00 0.00 0.00 0.00 0.00 0.00 0.00 0.00 0.00 0.00 0.00 0.00 0.00 0.04 0.07 0.07 0.04 0.00 0.00 0.00 0.00
0.00 0.00 0.00 0.00 0.00 0.00 0.00 0.00 0.00 0.00 0.00 0.00 0.00 0.00 0.00 0.00 0.00 0.00 0.00 0.00 0.00 0.00 0.00 0.00 0.00 0.00 0.02 0.01 0.00 0.01 0.01 0.00 0.00 0.00 0.00 0.00 0.00 0.00 0.00 0.02 0.05 0.00 0.00 0.00 0.00
0.00 0.00 0.00 0.00 0.00 0.00 0.00 0.00 0.00 0.00 0.00 0.00 0.00 0.00 0.00 0.00 0.00 0.00 0.00 0.00 0.00 0.00 0.00 0.00 0.00 0.00 0.00 0.00 0.00 0.00 0.00 0.00 0.00 0.00 0.00 0.00 0.00 0.00 0.00 0.00 0.01 0.01 0.00 0.00 0.00
0.00 0.00 0.00 0.00 0.00 0.00 0.00 0.00 0.00 0.00 0.00 0.00 0.00 0.00 0.00 0.01 0.01 0.00 0.00 0.00 0.00 0.00 0.00 0.00 0.00 0.00 0.00 0.00 0.00 0.00 0.00 0.00 0.00 0.00 0.00 0.00 0.00 0.00 0.00 0.00 0.00 0.00 0.01 0.00 0.00
MSLP
1015.12 1014.87 1014.64 1014.45 1014.17 1013.84 1013.55 1013.27 1012.92 1012.46 1011.94 1011.44 1010.90 1010.41 1009.99 1009.32 1007.68 1006.16 1004.75 1004.16 1003.75 1003.55 1003.38 1002.22 1000.85 999.79 999.17 998.52 998.34 998.86 999.53 999.83 1000.35 1000.93 1001.56 1001.72 1001.74 1002.36 1002.18 1003.27 1004.05 1004.81 1005.54 1006.37 1007.50
1015.18 1014.90 1014.63 1014.42 1014.12 1013.76 1013.46 1013.13 1012.79 1012.39 1011.89 1011.37 1010.87 1010.34 1009.92 1009.40 1007.63 1005.06 1004.08 1003.73 1003.72 1003.72 1003.09 1001.11 999.53 999.02 998.54 997.92 998.19 998.67 999.04 999.69 999.94 1000.41 1001.06 1001.49 1001.97 1002.59 1004.57 1003.12 1004.12 1005.44 1005.68 1006.59 1007.43
1015.27 1014.94 1014.66 1014.41 1014.14 1013.82 1013.49 1013.12 1012.76 1012.41 1011.98 1011.47 1010.93 1010.27 1009.82 1009.52 1006.59 1003.58 1003.68 1003.54 1003.46 1003.64 1002.97 1001.72 1000.06 998.90 998.27 998.85 998.68 999.14 999.51 999.94 1000.52 1000.78 1000.95 1002.18 1002.11 1003.11 1003.57 1003.34 1004.28 1005.61 1006.19 1006.78 1007.31
1015.21 1014.97 1014.69 1014.39 1014.08 1013.75 1013.44 1013.10 1012.75 1012.39 1012.01 1011.48 1010.90 1010.23 1009.30 1008.51 1005.15 1003.29 1003.42 1003.26 1003.25 1003.18 1002.26 1000.61 999.13 998.57 998.31 998.78 998.23 998.85 999.36 999.71 1000.19 1000.45 1000.68 1001.92 1003.91 1002.63 1002.95 1003.57 1004.39 1005.59 1006.48 1006.91 1007.17
1015.17 1014.91 1014.65 1014.32 1014.00 1013.67 1013.33 1013.03 1012.69 1012.34 1011.90 1011.41 1010.87 1010.34 1008.60 1006.45 1003.49 1002.93 1003.09 1002.95 1002.95 1002.38 1001.23 999.54 998.80 998.54 998.53 998.23 998.06 998.84 999.52 999.71 1000.01 1000.16 1000.75 1001.51 1002.46 1002.89 1003.28 1003.77 1004.58 1005.67 1006.46 1006.93 1007.12
1015.16 1014.85 1014.58 1014.23 1013.89 1013.55 1013.21 1012.91 1012.59 1012.22 1011.80 1011.33 1010.85 1010.41 1008.76 1005.15 1001.81 1001.94 1002.36 1002.18 1001.91 1001.11 1000.28 999.48 998.84 998.58 998.37 997.68 998.40 998.75 999.23 999.30 999.70 1000.05 1000.65 1001.07 1002.88 1003.14 1003.64 1004.14 1004.70 1005.37 1005.93 1006.40 1006.91
1015.09 1014.72 1014.42 1014.10 1013.72 1013.35 1013.02 1012.74 1012.43 1012.06 1011.63 1011.21 1010.97 1010.24 1007.17 1003.97 1001.84 1001.76 1001.97 1001.72 1001.17 1000.79 1000.03 999.55 999.53 998.97 998.18 997.73 998.20 998.71 998.94 999.16 999.42 999.90 1001.43 1002.42 1002.72 1002.91 1003.90 1004.23 1004.55 1005.03 1005.42 1006.14 1006.35
1015.03 1014.63 1014.26 1013.93 1013.56 1013.16 1012.79 1012.50 1012.20 1011.83 1011.43 1011.01 1010.90 1009.67 1005.72 1002.43 1002.44 1001.88 1001.77 1001.42 1001.12 1000.81 1000.51 999.99 999.83 999.11 998.28 998.30 998.38 998.26 998.25 999.10 999.71 999.97 1001.56 1002.43 1002.57 1003.05 1003.50 1003.76 1004.08 1004.51 1005.06 1005.69 1006.13
1014.92 1014.53 1014.13 1013.76 1013.40 1013.01 1012.58 1012.20 1011.78 1011.43 1011.19 1010.91 1010.15 1008.10 1003.96 1002.13 1002.10 1001.77 1001.56 1001.11 1000.61 1000.45 1000.29 1000.15 999.87 999.00 998.23 997.90 997.83 997.74 998.54 998.81 999.38 999.63 999.94 1000.82 1001.71 1002.57 1002.68 1002.92 1003.49 1003.98 1004.53 1005.20 1005.85
1014.81 1014.36 1013.98 1013.59 1013.21 1012.80 1012.19 1011.81 1010.89 1011.05 1010.38 1009.50 1008.24 1006.63 1002.87 1001.20 1001.01 1001.21 1001.19 1000.89 1000.28 1000.09 1000.12 1000.04 999.49 998.53 997.55 997.31 997.48 997.97 998.59 998.25 998.74 999.59 999.61 1000.14 1000.86 1001.95 1002.18 1002.15 1002.53 1003.37 1004.21 1004.96 1005.43
1014.69 1014.20 1013.77 1013.43 1013.10 1012.77 1011.85 1010.33 1010.33 1009.25 1007.99 1005.17 1003.79 1002.60 1000.79 1000.47 1000.13 1000.46 1000.52 1000.52 1000.34 1000.11 999.75 999.52 998.99 997.92 998.71 997.57 998.15 998.19 998.09 997.99 998.35 999.08 999.41 999.31 1000.82 1000.98 1001.51 1001.55 1001.85 1002.69 1003.39 1004.35 1004.89
1014.50 1014.01 1013.57 1013.21 1012.93 1012.73 1012.36 1008.74 1005.17 1004.50 1003.99 1003.55 1002.70 1001.55 1000.83 1000.25 1000.33 1000.19 1000.19 1000.33 1000.27 999.91 999.61 999.28 998.17 998.32 999.00 998.23 998.21 998.24 997.82 997.62 998.07 998.62 999.17 999.01 999.34 1000.14 1000.74 1000.80 1001.43 1003.17 1002.86 1003.52 1004.09
1014.26 1013.77 1013.38 1013.08 1012.69 1012.29 1009.49 1006.63 1004.83 1004.12 1003.04 1000.87 1001.28 1000.70 1000.34 1000.45 999.66 999.75 999.87 999.98 999.68 999.60 999.02 998.85 998.43 997.84 998.43 998.19 998.27 997.90 997.34 997.68 998.07 998.23 998.74 998.77 999.12 999.61 1000.15 1000.50 1001.13 1002.15 1004.11 1005.91 1004.75
1013.97 1013.60 1013.19 1012.91 1012.82 1008.59 1007.26 1005.87 1005.37 1004.27 1002.45 999.60 999.97 999.64 999.44 999.68 998.99 998.91 999.37 999.55 999.25 998.90 998.68 998.25 998.12 998.13 998.02 997.92 997.64 997.23 997.58 997.71 998.20 998.33 998.04 998.29 998.64 999.30 999.68 1000.33 1001.14 1001.99 1003.64 1004.01 1003.90
1013.67 1013.29 1013.07 1013.27 1011.21 1007.10 1004.73 1004.50 1004.40 1004.07 1000.71 998.27 998.52 998.21 998.76 998.99 997.99 998.46 999.06 999.27 998.82 998.53 998.34 997.64 997.39 997.50 997.63 997.42 997.43 997.45 997.89 997.80 998.08 997.99 997.90 997.38 998.23 998.78 999.91 1000.71 1000.98 1001.42 1002.12 1003.15 1004.20
1013.37 1013.03 1012.81 1011.88 1010.71 1006.88 1005.01 1004.64 1004.58 1003.03 998.84 997.51 997.77 998.09 998.33 998.18 997.83 998.14 998.68 999.06 998.73 998.33 998.14 997.53 997.17 997.31 997.30 997.33 997.08 997.31 997.83 997.94 998.02 998.08 997.76 997.37 997.97 999.46 1000.58 1002.25 1002.29 1000.88 1000.70 1002.08 1001.03
1012.85 1012.58 1012.55 1010.11 1006.66 1005.06 1004.98 1004.57 1003.24 1000.34 996.50 996.87 997.24 997.58 997.70 997.49 997.39 998.09 998.47 998.55 998.30 997.85 997.54 997.70 997.01 996.95 997.05 996.80 996.77 997.37 997.58 997.21 997.35 997.39 997.31 998.22 998.61 1000.25 1001.76 1001.52 1001.83 1001.47 1000.17 999.92 999.90
1012.41 1012.12 1010.53 1008.94 1006.49 1005.79 1005.08 1004.03 1001.24 997.68 996.02 995.68 996.51 997.08 996.90 996.61 997.04 997.81 998.13 998.03 997.81 997.13 996.55 996.71 996.64 996.83 996.62 996.49 996.41 996.96 996.93 996.59 996.65 997.32 998.90 999.63 1001.69 1002.92 1002.96 1002.40 1001.98 1001.67 1000.03 999.74 999.40
1011.92 1010.30 1008.59 1006.57 1007.26 1006.28 1004.73 1002.40 999.04 996.30 994.58 995.00 995.89 996.16 996.05 996.02 996.32 997.09 997.24 997.04 996.75 996.75 996.11 995.42 995.36 995.87 996.29 996.70 996.72 996.44 996.23 996.06 996.29 996.80 998.32 1001.27 1005.04 1004.08 1005.90 1006.18 1003.54 1001.74 1000.73 999.71 999.12
1010.78 1007.48 1005.04 1004.39 1005.83 1005.60 1003.92 1000.67 998.05 996.12 994.57 994.37 994.83 995.20 995.17 995.33 995.69 996.17 996.17 995.97 995.73 995.86 996.00 995.73 995.63 995.63 995.96 996.35 996.49 996.57 996.44 996.25 996.26 997.02 999.09 1002.53 1005.19 1007.24 1009.29 1009.00 1007.14 1003.10 1001.32 1000.00 999.70
1010.16 1005.87 1003.62 1004.12 1004.70 1004.22 1002.19 999.97 997.98 996.22 995.36 994.11 994.23 994.43 994.43 994.61 995.34 995.26 995.15 995.06 995.38 995.49 996.03 995.92 995.54 996.95 996.92 996.94 996.95 996.94 996.89 996.68 996.33 996.93 998.52 1001.54 1003.30 1006.85 1008.35 1008.68 1007.40 1005.88 1002.23 1000.89 1000.45
1007.98 1004.50 1003.37 1003.70 1003.78 1002.61 1000.99 999.16 997.90 996.28 995.66 995.03 994.27 993.75 993.92 994.19 994.86 994.75 994.58 994.79 995.30 995.56 996.22 996.53 996.98 997.72 998.99 998.42 997.43 996.74 996.57 996.28 996.35 997.88 999.07 1000.78 1002.07 1005.44 1006.63 1008.02 1006.94 1004.98 1003.18 1002.31 1000.98
1007.12 1003.60 1003.29 1003.10 1002.02 1000.78 1000.01 998.49 997.59 996.75 995.64 995.44 994.39 993.83 993.83 994.09 994.95 994.75 995.62 995.69 996.05 996.42 997.12 997.33 997.67 999.97 1001.14 1000.70 999.82 999.40 998.48 996.89 997.05 997.44 998.44 999.80 1002.80 1006.72 1008.35 1008.18 1007.22 1004.26 1003.92 1003.90 1003.37
1007.35 1002.77 1002.86 1002.72 1001.49 1000.39 998.90 997.82 997.01 996.79 996.18 995.51 994.82 994.27 994.18 994.44 994.91 996.78 997.43 996.93 996.95 996.94 997.93 998.15 998.55 1000.98 1003.24 1003.87 1003.40 1002.05 999.94 998.61 997.89 997.70 997.93 998.93 1001.89 1007.55 1009.21 1009.44 1008.96 1005.53 1004.65 1003.97 1004.66
1006.36 1002.47 1001.15 1001.11 1000.71 999.95 998.47 997.46 996.77 996.25 996.34 995.58 995.31 994.96 994.79 996.67 995.94 996.26 997.02 997.12 997.36 997.87 998.10 998.31 999.65 1001.50 1002.72 1003.72 1003.98 1002.81 1000.96 999.47 998.52 998.51 998.80 999.37 1000.67 1003.94 1005.38 1005.58 1006.91 1003.53 1004.93 1005.85 1005.66
1005.81 1003.87 1001.75 999.86 999.84 999.23 998.59 997.85 996.52 996.04 996.25 996.26 996.12 995.73 996.62 999.21 1000.25 1000.28 998.25 997.67 997.55 997.98 998.02 997.99 998.71 1000.75 1001.76 1002.43 1002.28 1002.00 1000.30 999.22 998.88 998.86 998.96 998.93 999.91 1000.73 1002.04 1003.19 1004.62 1003.50 1004.64 1005.49 1005.29
1006.78 1005.02 1003.35 1000.83 998.98 998.64 998.02 997.65 996.99 997.76 996.27 996.11 996.81 998.01 999.06 999.04 1001.36 1000.22 999.96 1000.85 997.14 997.41 997.53 997.91 998.23 999.66 1000.10 1000.36 1000.60 1000.28 999.10 998.48 998.60 998.90 999.22 999.75 1000.38 1001.09 1001.32 1001.93 1002.63 1003.62 1003.99 1004.44 1006.03
Thickness
5749 5752 5756 5759 5763 5766 5770 5773 5776 5781 5786 5790 5795 5800 5804 5811 5827 5844 5846 5860 5868 5873 5876 5881 5889 5893 5898 5891 5899 5893 5837 5826 5830 5826 5827 5849 5842 5853 5863 5841 5839 5836 5827 5829 5828
5746 5750 5753 5757 5761 5765 5769 5772 5776 5780 5785 5789 5794 5799 5803 5809 5825 5840 5862 5867 5870 5871 5871 5878 5878 5891 5881 5893 5889 5869 5844 5837 5857 5852 5841 5850 5847 5843 5806 5836 5829 5823 5834 5834 5827
5743 5747 5750 5754 5758 5762 5766 5771 5774 5778 5782 5787 5791 5797 5802 5806 5821 5844 5864 5868 5871 5872 5875 5881 5887 5888 5877 5882 5879 5865 5842 5855 5852 5857 5860 5842 5845 5838 5823 5824 5829 5814 5820 5825 5824
5741 5745 5748 5752 5756 5760 5764 5768 5772 5776 5780 5785 5790 5796 5805 5811 5793 5851 5864 5869 5872 5876 5876 5880 5885 5876 5868 5861 5886 5857 5867 5865 5862 5867 5861 5842 5820 5840 5843 5835 5843 5833 5827 5824 5821
5740 5743 5746 5750 5754 5759 5763 5767 5771 5775 5779 5784 5789 5794 5810 5810 5826 5863 5866 5870 5874 5874 5872 5879 5874 5872 5854 5874 5884 5862 5862 5867 5869 5871 5865 5861 5844 5838 5837 5846 5845 5835 5826 5821 5822
5737 5741 5745 5749 5753 5758 5762 5766 5770 5774 5779 5783 5787 5792 5801 5795 5868 5870 5872 5872 5873 5875 5875 5883 5877 5888 5878 5882 5869 5876 5869 5872 5874 5870 5868 5855 5835 5839 5839 5845 5836 5831 5826 5826 5824
5735 5739 5744 5748 5752 5757 5761 5765 5769 5774 5778 5782 5784 5791 5803 5815 5866 5871 5870 5868 5878 5876 5868 5887 5889 5876 5884 5878 5890 5878 5857 5868 5872 5872 5850 5846 5829 5828 5841 5842 5832 5829 5830 5826 5829
5732 5737 5742 5747 5751 5757 5762 5766 5769 5774 5778 5782 5784 5791 5798 5856 5859 5861 5868 5867 5879 5883 5880 5889 5892 5881 5881 5890 5879 5866 5873 5835 5861 5868 5853 5844 5806 5836 5848 5841 5832 5832 5832 5828 5829
5730 5735 5740 5745 5750 5756 5762 5766 5771 5775 5778 5781 5787 5795 5803 5857 5840 5856 5865 5855 5869 5877 5882 5887 5883 5873 5880 5864 5857 5870 5829 5838 5844 5874 5867 5853 5826 5844 5856 5848 5836 5836 5834 5830 5829
5728 5734 5739 5744 5749 5755 5763 5768 5775 5776 5783 5790 5798 5790 5824 5826 5846 5854 5866 5865 5858 5863 5860 5861 5865 5857 5875 5866 5829 5840 5834 5855 5843 5857 5866 5850 5841 5848 5856 5851 5845 5841 5838 5834 5831
5725 5732 5737 5742 5748 5753 5765 5779 5777 5778 5789 5805 5813 5817 5835 5850 5864 5850 5863 5857 5857 5849 5830 5855 5839 5841 5833 5869 5864 5862 5858 5854 5863 5869 5858 5859 5839 5848 5858 5856 5851 5846 5844 5840 5837
5723 5730 5736 5741 5746 5751 5757 5781 5809 5815 5796 5817 5824 5831 5843 5851 5824 5840 5863 5834 5833 5820 5842 5839 5835 5855 5859 5869 5861 5857 5857 5859 5868 5872 5861 5861 5855 5857 5860 5862 5862 5832 5830 5852 5848
5722 5728 5734 5739 5745 5752 5776 5795 5822 5824 5796 5825 5829 5829 5835 5841 5828 5832 5851 5841 5831 5825 5837 5829 5847 5874 5858 5856 5848 5858 5861 5856 5853 5866 5869 5861 5847 5850 5862 5869 5869 5864 5835 5814 5842
5721 5726 5732 5738 5744 5781 5782 5806 5814 5822 5780 5814 5819 5832 5844 5844 5828 5861 5861 5845 5836 5829 5841 5846 5865 5855 5853 5848 5863 5850 5872 5867 5854 5846 5827 5868 5816 5849 5861 5856 5862 5864 5832 5831 5838
5720 5725 5729 5732 5751 5779 5804 5818 5820 5809 5755 5830 5830 5868 5853 5833 5848 5846 5868 5849 5828 5836 5846 5842 5854 5852 5843 5854 5869 5851 5869 5864 5858 5849 5850 5862 5840 5847 5861 5846 5854 5866 5866 5822 5814
5718 5724 5728 5739 5748 5782 5805 5811 5803 5764 5763 5817 5837 5828 5828 5839 5845 5853 5848 5860 5858 5842 5849 5852 5880 5865 5858 5869 5876 5878 5859 5857 5858 5850 5822 5861 5860 5832 5834 5825 5829 5868 5877 5848 5865
5718 5723 5726 5746 5771 5796 5801 5790 5758 5760 5844 5817 5820 5832 5829 5829 5838 5837 5829 5826 5819 5810 5818 5837 5850 5867 5873 5858 5875 5863 5844 5819 5815 5820 5823 5865 5852 5831 5833 5842 5845 5846 5874 5883 5876
5716 5721 5738 5753 5774 5786 5785 5765 5747 5812 5830 5851 5837 5833 5822 5841 5838 5833 5826 5818 5841 5844 5838 5821 5814 5851 5872 5862 5855 5851 5852 5829 5798 5805 5807 5851 5815 5812 5840 5847 5856 5857 5878 5883 5883
5715 5732 5747 5767 5765 5775 5766 5748 5785 5825 5862 5843 5837 5821 5825 5845 5845 5834 5830 5830 5847 5852 5833 5843 5840 5873 5873 5873 5868 5853 5843 5879 5850 5859 5832 5814 5770 5804 5809 5813 5845 5862 5869 5872 5880
5723 5749 5766 5782 5773 5767 5756 5763 5803 5838 5862 5859 5824 5837 5823 5839 5837 5835 5835 5856 5855 5869 5873 5858 5830 5870 5874 5880 5877 5861 5877 5839 5852 5811 5793 5771 5769 5771 5758 5755 5763 5849 5858 5867 5874
5723 5744 5773 5780 5775 5757 5750 5779 5808 5844 5853 5855 5846 5841 5848 5845 5844 5843 5848 5866 5870 5867 5870 5866 5862 5836 5858 5851 5843 5849 5840 5851 5863 5854 5808 5762 5795 5787 5772 5762 5730 5800 5850 5855 5858
5737 5735 5773 5779 5742 5759 5765 5794 5809 5831 5851 5846 5858 5865 5856 5860 5847 5852 5852 5862 5879 5874 5846 5863 5845 5821 5817 5855 5876 5876 5862 5866 5838 5811 5828 5801 5791 5800 5790 5773 5772 5802 5838 5847 5852
5732 5753 5772 5772 5739 5761 5784 5798 5814 5821 5836 5838 5846 5865 5875 5860 5838 5860 5840 5867 5870 5860 5843 5854 5834 5773 5772 5812 5834 5825 5840 5865 5860 5853 5822 5811 5791 5779 5766 5769 5782 5824 5827 5828 5833
5730 5744 5753 5760 5769 5762 5781 5795 5802 5828 5829 5846 5850 5865 5865 5856 5866 5818 5811 5849 5860 5858 5839 5850 5834 5788 5744 5754 5774 5783 5818 5838 5842 5822 5826 5832 5813 5743 5738 5741 5751 5804 5816 5819 5816
5738 5754 5769 5749 5761 5773 5791 5804 5805 5813 5831 5846 5842 5852 5856 5820 5851 5849 5839 5841 5849 5834 5846 5844 5802 5793 5790 5779 5777 5783 5805 5821 5829 5830 5809 5820 5821 5800 5785 5773 5764 5806 5815 5804 5801
5729 5727 5757 5779 5782 5781 5778 5785 5809 5823 5827 5824 5831 5852 5849 5792 5794 5785 5829 5837 5830 5840 5836 5848 5819 5795 5785 5793 5795 5785 5818 5831 5829 5826 5825 5827 5819 5840 5836 5822 5795 5791 5802 5798 5799
5736 5748 5752 5761 5784 5782 5785 5793 5808 5802 5838 5849 5840 5817 5798 5811 5800 5810 5813 5790 5851 5836 5832 5831 5828 5802 5794 5815 5806 5783 5813 5827 5826 5827 5819 5798 5808 5822 5824 5819 5810 5798 5792 5787 5785